Location: Avon Lake
(41.5219°N, 93.5010°W)
Time: 00:13:48
(UTC+00:00)

Tiangong - Pass Details

Date: 24 April 2024
Orbit: 372 x 375 km, 41.5° (Epoch: 20 May)

Event Time Altitude Azimuth Distance (km) Brightness Sun altitude
Rises 01:29:43 0° 269° (W) 2,264 3.2 -5.4°
Reaches altitude 10° 01:31:48 10° 269° (W) 1,406 2.0 -5.7°
Maximum altitude 01:34:58 88° 1° (N) 386 -2.1 -6.3°
Drops below altitude 10° 01:38:07 10° 89° (E) 1,393 0.1 -6.8°
Enters shadow 01:38:36 - 90° (E) 1,587 0.4 -6.9°
